map of EVM home
EVM - Airport
Location
City:  Eveleth, Minnesota, United States
Name:Eveleth-Virginia Municipal Airport
ICAO:KEVM
IATA:EVM
FAA LID:EVM

Details
Type:Airport (Airfield)
Use:Public/Civil
Latitude:4725'27"N (47.424167)
Longitude:9229'48"W (-92.496555)
Datum:WGS 1984
Elevation:1376 ft (419 m)
Variation:0.72W (WMM2015v2 magnetic declination)
-0.03 annual change
Runways:2
Longest:4000 × 75 ft (1219 × 23 m), paved

Time
Time Zone:UTC-6 (DST-5)
Local Time:

Weather
METAR:KEVM 041415Z AUTO 04010G15KT 10SM -SN OVC025 M14/M17 A2977 RMK AO2 T11371166

Related Locations
Nearby:
Farthest:YWKS: 10843 mi / 17450 km
Wilkins Runway (Casey), Upper Peterson Glacier, AQ

Find:

   beyond  
but within

Other Information
Maps:
NOTAMs:
Links:
Sources:

  
  • flag of United States
  • flag of Minnesota
  

Sectional Chart

Flight Planning
at skyvector.com

Satellite Image

Google Maps Satellite view

 

Copyright © 2004-2019 Karl L. Swartz. All rights reserved.
The Great Circle Mapper name and logo are trademarks of the Great Circle Mapper.
All other trademarks mentioned herein belong to their respective owners.
Please see credits for attibutions and further copyright information.

  Follow gcmap on Facebook Follow gcmap on Twitter GCmap on LinkedIn

hCard Microformat

Geo Microformat